Weather History for Pensacola, FL

Change the Weather History Date:

Thursday, March 15, 2012

  Actual Average Record
Temperature  
Mean Temperature 72 °F 60 °F  
Max Temperature 83 °F 70 °F 83 °F (1967)
Min Temperature 61 °F 51 °F 30 °F (1988)
Degree Days  
Heating Degree Days 0 6  
Month to date heating degree days 28 104  
Since 1 July heating degree days 906 1412  
Cooling Degree Days 7 1  
Month to date cooling degree days 42 14  
Year to date cooling degree days 94 28  
Growing Degree Days 22 (Base 50)    
Moisture  
Dew Point 62 °F    
Average Humidity 73    
Maximum Humidity 100    
Minimum Humidity 46    
Precipitation  
Precipitation 0.02 in 0.19 in 4.10 in (1912)
Month to date precipitation 2.35 2.89  
Year to date precipitation 10.59 12.58  
Snow  
Snow 0.00 in 0.00 in - ()
Month to date snowfall 0.0 0.0  
Since 1 July snowfall 0.0 0.0  
Snow Depth 0.00 in    
Sea Level Pressure  
Sea Level Pressure 30.23 in    
Wind  
Wind Speed 5 mph (NNW)    
Max Wind Speed 14 mph    
Max Gust Speed 17 mph    
Visibility 6 miles    
Events Fog    
T = Trace of Precipitation, MM = Missing Value Source: NWS Daily Summary

Daily Weather History Graph

Daily Weather History Graph

Search for Another Location

Airport:

Trip Planner

Search our weather history database for the weather conditions in past years. The results will help you decide how hot, cold, wet, or windy it might be!

Date:

Astronomy

Mar. 15, 2012 Rise Set
Actual Time 6:58 AM CDT 6:57 PM CDT
Civil Twilight 6:34 AM CDT 7:21 PM CDT
Nautical Twilight 6:06 AM CDT 7:49 PM CDT
Astronomical Twilight 5:38 AM CDT 8:17 PM CDT
Moon 2:01 AM CDT (3/15) 12:37 PM CDT (3/15)
Length of Visible Light 12h 47m
Length of Day
11h 59m
Last Quarter, 43% of the Moon is Illuminated
Mar 15
Last Quarter
Mar 22
New
Mar 30
First Quarter
Apr 6
Full
Apr 13
Last Quarter

Hourly Weather History & Observations

Time (CDT) Temp. Heat Index Dew Point Humidity Pressure Visibility Wind Dir Wind Speed Gust Speed Precip Events Conditions
12:53 AM 63.0 °F - 61.0 °F 93% 30.24 in 10.0 mi Calm Calm - N/A   Clear
1:53 AM 64.0 °F - 62.1 °F 93% 30.22 in 10.0 mi WNW 3.5 mph - N/A   Clear
2:53 AM 63.0 °F - 61.0 °F 93% 30.20 in 10.0 mi Calm Calm - N/A   Clear
3:53 AM 63.0 °F - 62.1 °F 97% 30.20 in 9.0 mi Calm Calm - N/A   Clear
4:53 AM 62.1 °F - 60.1 °F 93% 30.20 in 8.0 mi North 3.5 mph - N/A   Clear
5:10 AM 62.6 °F - 60.8 °F 94% 30.20 in 2.5 mi NE 5.8 mph - N/A   Partly Cloudy
5:15 AM 62.6 °F - 60.8 °F 94% 30.21 in 1.0 mi NE 3.5 mph - N/A   Mist
5:21 AM 62.6 °F - 60.8 °F 94% 30.21 in 0.2 mi NNE 4.6 mph - N/A Fog Fog
5:53 AM 63.0 °F - 62.1 °F 97% 30.23 in 0.2 mi Calm Calm - N/A Fog Fog
5:56 AM 62.6 °F - 62.6 °F 100% 30.23 in 0.5 mi Calm Calm - N/A Fog Fog
6:04 AM 62.6 °F - 62.6 °F 100% 30.23 in 0.5 mi NNW 3.5 mph - N/A Fog Fog
6:09 AM 64.4 °F - 62.6 °F 94% 30.23 in 0.2 mi Calm Calm - N/A Fog Fog
6:17 AM 64.4 °F - 62.6 °F 94% 30.23 in 0.2 mi NNW 5.8 mph - N/A Fog Fog
6:36 AM 64.4 °F - 62.6 °F 94% 30.24 in 0.5 mi North 3.5 mph - N/A Fog Fog
6:53 AM 63.0 °F - 62.1 °F 97% 30.26 in 0.8 mi NNE 3.5 mph - N/A   Mist
7:19 AM 62.6 °F - 60.8 °F 94% 30.26 in 0.2 mi NNE 4.6 mph - N/A Fog Fog
7:28 AM 62.6 °F - 60.8 °F 94% 30.26 in 0.2 mi NNE 3.5 mph - N/A Fog Fog
7:32 AM 62.6 °F - 60.8 °F 94% 30.26 in 1.0 mi NNE 4.6 mph - N/A   Mist
7:39 AM 62.6 °F - 60.8 °F 94% 30.26 in 0.2 mi NNE 3.5 mph - N/A Fog Fog
7:53 AM 62.1 °F - 61.0 °F 96% 30.28 in 0.2 mi NNE 4.6 mph - N/A Fog Fog
8:08 AM 62.6 °F - 62.6 °F 100% 30.28 in 0.5 mi NNE 4.6 mph - N/A Fog Fog
8:16 AM 64.4 °F - 62.6 °F 94% 30.28 in 2.0 mi North 3.5 mph - N/A   Mostly Cloudy
8:24 AM 64.4 °F - 62.6 °F 94% 30.28 in 6.0 mi North 3.5 mph - N/A   Scattered Clouds
8:53 AM 66.0 °F - 64.0 °F 93% 30.30 in 10.0 mi NNW 4.6 mph - N/A   Clear
9:53 AM 73.0 °F - 64.0 °F 73% 30.30 in 10.0 mi North 5.8 mph - 0.02 in   Clear
10:53 AM 78.1 °F - 63.0 °F 60% 30.30 in 10.0 mi Variable 6.9 mph - N/A   Clear
11:53 AM 80.1 °F 81.2 °F 62.1 °F 54% 30.28 in 10.0 mi Variable 3.5 mph - N/A   Clear
12:53 PM 82.0 °F 82.4 °F 60.1 °F 47% 30.26 in 10.0 mi Variable 3.5 mph - N/A   Clear
1:53 PM 82.0 °F 83.0 °F 62.1 °F 51% 30.23 in 10.0 mi SSE 10.4 mph - N/A   Clear
2:53 PM 82.0 °F 82.1 °F 59.0 °F 45% 30.21 in 10.0 mi South 9.2 mph - N/A   Clear
3:53 PM 80.1 °F 81.2 °F 62.1 °F 54% 30.20 in 10.0 mi South 11.5 mph - N/A   Clear
4:53 PM 80.1 °F 81.1 °F 61.0 °F 52% 30.19 in 10.0 mi SSW 10.4 mph - N/A   Clear
5:53 PM 78.1 °F - 61.0 °F 56% 30.19 in 10.0 mi SSW 6.9 mph - N/A   Clear
6:53 PM 75.9 °F - 60.1 °F 58% 30.18 in 10.0 mi SW 9.2 mph - N/A   Clear
7:53 PM 73.0 °F - 60.1 °F 64% 30.19 in 10.0 mi WSW 5.8 mph - N/A   Clear
8:53 PM 71.1 °F - 61.0 °F 70% 30.21 in 10.0 mi WSW 6.9 mph - N/A   Clear
9:53 PM 70.0 °F - 62.1 °F 76% 30.21 in 10.0 mi West 4.6 mph - N/A   Clear
10:53 PM 68.0 °F - 62.1 °F 81% 30.21 in 10.0 mi WNW 4.6 mph - N/A   Clear
11:53 PM 68.0 °F - 62.1 °F 81% 30.21 in 10.0 mi Calm Calm - N/A   Clear